Tiempo cada hora Abergele

Hoy, 24 Octubre, Sábado

Tiempo Temperatura Precipitaciones Viento Presión Humedad
00:00 +5°C° 0 mm 6 mps 745 mmHg 87%
01:00 +7°C° 0 mm 6 mps 744 mmHg 85%
02:00 +6°C° 0 mm 7 mps 743 mmHg 84%
03:00 +8°C° 0 mm 7 mps 742 mmHg 83%
04:00 +8°C° 0.1 mm 7 mps 741 mmHg 85%
05:00 +9°C° 0.1 mm 8 mps 740 mmHg 86%
06:00 +9°C° 0.1 mm 8 mps 739 mmHg 88%
07:00 +10°C° 0.6 mm 7 mps 739 mmHg 89%
08:00 +11°C° 0.6 mm 7 mps 739 mmHg 89%
09:00 +11°C° 0.6 mm 7 mps 738 mmHg 90%
10:00 +11°C° 1 mm 6 mps 738 mmHg 90%
11:00 +11°C° 1 mm 6 mps 737 mmHg 90%
12:00 +11°C° 1 mm 6 mps 737 mmHg 90%
13:00 +10°C° 1.2 mm 5 mps 737 mmHg 91%
14:00 +9°C° 1.2 mm 5 mps 737 mmHg 91%
15:00 +8°C° 1.2 mm 5 mps 736 mmHg 92%
16:00 +8°C° 0.1 mm 5 mps 736 mmHg 92%
17:00 +7°C° 0.1 mm 5 mps 736 mmHg 91%
18:00 +7°C° 0.1 mm 5 mps 736 mmHg 91%
19:00 +6°C° 0 mm 5 mps 736 mmHg 92%
20:00 +6°C° 0 mm 4 mps 736 mmHg 93%
21:00 +6°C° 0 mm 4 mps 735 mmHg 93%
22:00 +6°C° 0.3 mm 4 mps 735 mmHg 93%
23:00 +6°C° 0.3 mm 5 mps 735 mmHg 92%

Mañana, 25 Octubre, Domingo

Tiempo Temperatura Precipitaciones Viento Presión Humedad
00:00 +6°C° 0.3 mm 5 mps 735 mmHg 92%
01:00 +5°C° 0.2 mm 6 mps 735 mmHg 91%
02:00 +5°C° 0.2 mm 6 mps 735 mmHg 91%
03:00 +4°C° 0.2 mm 7 mps 735 mmHg 91%
04:00 +4°C° 0.2 mm 7 mps 735 mmHg 90%
05:00 +5°C° 0.2 mm 7 mps 735 mmHg 90%
06:00 +5°C° 0.2 mm 8 mps 734 mmHg 89%
07:00 +5°C° 0.3 mm 7 mps 735 mmHg 89%
08:00 +6°C° 0.3 mm 7 mps 735 mmHg 88%
09:00 +6°C° 0.3 mm 7 mps 735 mmHg 87%
10:00 +8°C° 0.2 mm 7 mps 735 mmHg 83%
11:00 +9°C° 0.2 mm 7 mps 735 mmHg 79%
12:00 +10°C° 0.2 mm 8 mps 735 mmHg 75%
13:00 +9°C° 0.2 mm 7 mps 735 mmHg 76%
14:00 +9°C° 0.2 mm 7 mps 735 mmHg 77%
15:00 +9°C° 0.2 mm 7 mps 735 mmHg 79%
16:00 +8°C° 0.1 mm 6 mps 735 mmHg 82%
17:00 +7°C° 0.1 mm 6 mps 735 mmHg 85%
18:00 +5°C° 0.1 mm 6 mps 735 mmHg 88%
19:00 +5°C° 0.1 mm 6 mps 735 mmHg 87%
20:00 +5°C° 0.1 mm 6 mps 736 mmHg 86%
21:00 +5°C° 0.1 mm 6 mps 736 mmHg 85%
22:00 +5°C° 0.1 mm 6 mps 735 mmHg 87%
23:00 +5°C° 0.1 mm 6 mps 735 mmHg 88%

Pasado mañana, 26 Octubre, Lunes

Tiempo Temperatura Precipitaciones Viento Presión Humedad
00:00 +5°C° 0.1 mm 6 mps 735 mmHg 89%
01:00 +5°C° 0.1 mm 6 mps 735 mmHg 90%
02:00 +5°C° 0.1 mm 6 mps 735 mmHg 91%
03:00 +5°C° 0.1 mm 6 mps 735 mmHg 92%
04:00 +6°C° 0.1 mm 5 mps 734 mmHg 92%
05:00 +6°C° 0.1 mm 5 mps 734 mmHg 93%
06:00 +6°C° 0.1 mm 4 mps 734 mmHg 94%
07:00 +6°C° 0.3 mm 5 mps 734 mmHg 93%
08:00 +7°C° 0.3 mm 5 mps 734 mmHg 91%
09:00 +8°C° 0.3 mm 5 mps 734 mmHg 90%
10:00 +8°C° 0.6 mm 6 mps 735 mmHg 88%
11:00 +9°C° 0.6 mm 8 mps 736 mmHg 86%
12:00 +8°C° 0.6 mm 9 mps 736 mmHg 84%
13:00 +8°C° 0.3 mm 9 mps 736 mmHg 83%
14:00 +8°C° 0.3 mm 9 mps 737 mmHg 83%
15:00 +8°C° 0.3 mm 9 mps 737 mmHg 83%
16:00 +7°C° 0.3 mm 8 mps 737 mmHg 85%
17:00 +7°C° 0.3 mm 8 mps 738 mmHg 87%
18:00 +6°C° 0.3 mm 8 mps 738 mmHg 89%
19:00 +6°C° 0.2 mm 8 mps 738 mmHg 89%
20:00 +6°C° 0.2 mm 8 mps 738 mmHg 89%
21:00 +6°C° 0.2 mm 8 mps 739 mmHg 89%
22:00 +6°C° 0.1 mm 8 mps 739 mmHg 90%
23:00 +6°C° 0.1 mm 7 mps 739 mmHg 91%

, 27 Octubre, Martes

Tiempo Temperatura Precipitaciones Viento Presión Humedad
00:00 +6°C° 0.1 mm 7 mps 739 mmHg 91%
01:00 +5°C° 0 mm 6 mps 739 mmHg 92%
02:00 +5°C° 0 mm 6 mps 739 mmHg 92%
03:00 +6°C° 0 mm 5 mps 739 mmHg 92%
04:00 +5°C° 0 mm 5 mps 739 mmHg 93%
05:00 +5°C° 0 mm 4 mps 739 mmHg 93%
06:00 +5°C° 0 mm 4 mps 739 mmHg 93%
07:00 +5°C° 0.1 mm 4 mps 738 mmHg 92%
08:00 +6°C° 0.1 mm 5 mps 737 mmHg 90%
09:00 +7°C° 0.1 mm 5 mps 736 mmHg 89%
10:00 +7°C° 0.2 mm 6 mps 735 mmHg 90%
11:00 +8°C° 0.2 mm 6 mps 734 mmHg 91%
12:00 +8°C° 0.2 mm 7 mps 733 mmHg 92%
13:00 +7°C° 0.8 mm 8 mps 733 mmHg 90%
14:00 +7°C° 0.8 mm 8 mps 733 mmHg 89%
15:00 +7°C° 0.8 mm 9 mps 733 mmHg 87%
16:00 +6°C° 0.1 mm 8 mps 733 mmHg 87%
17:00 +5°C° 0.1 mm 8 mps 734 mmHg 86%
18:00 +4°C° 0.1 mm 8 mps 735 mmHg 86%
19:00 +4°C° 0 mm 8 mps 735 mmHg 86%
20:00 +4°C° 0 mm 7 mps 735 mmHg 87%
21:00 +4°C° 0 mm 7 mps 735 mmHg 87%
22:00 +4°C° 0 mm 7 mps 735 mmHg 88%
23:00 +4°C° 0 mm 7 mps 734 mmHg 88%

27 Octubre, Martes

Tiempo Temperatura Precipitaciones Viento Presión Humedad
00:00 +6°C° 0.1 mm 7 mps 739 mmHg 91%
01:00 +5°C° 0 mm 6 mps 739 mmHg 92%
02:00 +5°C° 0 mm 6 mps 739 mmHg 92%
03:00 +6°C° 0 mm 5 mps 739 mmHg 92%
04:00 +5°C° 0 mm 5 mps 739 mmHg 93%
05:00 +5°C° 0 mm 4 mps 739 mmHg 93%
06:00 +5°C° 0 mm 4 mps 739 mmHg 93%
07:00 +5°C° 0.1 mm 4 mps 738 mmHg 92%
08:00 +6°C° 0.1 mm 5 mps 737 mmHg 90%
09:00 +7°C° 0.1 mm 5 mps 736 mmHg 89%
10:00 +7°C° 0.2 mm 6 mps 735 mmHg 90%
11:00 +8°C° 0.2 mm 6 mps 734 mmHg 91%
12:00 +8°C° 0.2 mm 7 mps 733 mmHg 92%
13:00 +7°C° 0.8 mm 8 mps 733 mmHg 90%
14:00 +7°C° 0.8 mm 8 mps 733 mmHg 89%
15:00 +7°C° 0.8 mm 9 mps 733 mmHg 87%
16:00 +6°C° 0.1 mm 8 mps 733 mmHg 87%
17:00 +5°C° 0.1 mm 8 mps 734 mmHg 86%
18:00 +4°C° 0.1 mm 8 mps 735 mmHg 86%
19:00 +4°C° 0 mm 8 mps 735 mmHg 86%
20:00 +4°C° 0 mm 7 mps 735 mmHg 87%
21:00 +4°C° 0 mm 7 mps 735 mmHg 87%
22:00 +4°C° 0 mm 7 mps 735 mmHg 88%
23:00 +4°C° 0 mm 7 mps 734 mmHg 88%

28 Octubre, Miércoles

Tiempo Temperatura Precipitaciones Viento Presión Humedad
00:00 +4°C° 0 mm 7 mps 734 mmHg 88%
01:00 +5°C° 0.2 mm 7 mps 733 mmHg 89%
02:00 +5°C° 0.2 mm 7 mps 733 mmHg 89%
03:00 +6°C° 0.2 mm 7 mps 732 mmHg 90%
04:00 +6°C° 0.4 mm 7 mps 732 mmHg 90%
05:00 +6°C° 0.4 mm 8 mps 731 mmHg 91%
06:00 +6°C° 0.4 mm 8 mps 731 mmHg 91%
07:00 +6°C° 0.5 mm 8 mps 731 mmHg 90%
08:00 +7°C° 0.5 mm 9 mps 730 mmHg 89%
09:00 +7°C° 0.5 mm 9 mps 730 mmHg 88%
10:00 +7°C° 0.7 mm 10 mps 730 mmHg 86%
11:00 +8°C° 0.7 mm 11 mps 730 mmHg 83%
12:00 +8°C° 0.7 mm 12 mps 729 mmHg 81%
13:00 +8°C° 0.2 mm 12 mps 729 mmHg 80%
14:00 +8°C° 0.2 mm 13 mps 728 mmHg 80%
15:00 +8°C° 0.2 mm 13 mps 728 mmHg 80%
16:00 +8°C° 0.9 mm 13 mps 728 mmHg 81%
17:00 +8°C° 0.9 mm 14 mps 728 mmHg 83%
18:00 +8°C° 0.9 mm 14 mps 728 mmHg 85%
19:00 +8°C° 0.3 mm 14 mps 729 mmHg 83%
20:00 +8°C° 0.3 mm 14 mps 731 mmHg 82%
21:00 +8°C° 0.3 mm 13 mps 732 mmHg 80%
22:00 +8°C° 0.3 mm 13 mps 733 mmHg 80%
23:00 +8°C° 0.3 mm 13 mps 735 mmHg 80%

29 Octubre, Jueves

Tiempo Temperatura Precipitaciones Viento Presión Humedad
00:00 +8°C° 0.3 mm 13 mps 736 mmHg 80%
01:00 +8°C° 0.1 mm 12 mps 737 mmHg 81%
02:00 +7°C° 0.1 mm 11 mps 738 mmHg 81%
03:00 +7°C° 0.1 mm 11 mps 739 mmHg 82%
04:00 +7°C° 0.5 mm 9 mps 739 mmHg 85%
05:00 +7°C° 0.5 mm 8 mps 738 mmHg 89%
06:00 +8°C° 0.5 mm 7 mps 738 mmHg 93%
07:00 +9°C° 1 mm 7 mps 737 mmHg 93%
08:00 +10°C° 1 mm 8 mps 737 mmHg 94%
09:00 +11°C° 1 mm 8 mps 736 mmHg 95%
10:00 +12°C° 0.4 mm 9 mps 736 mmHg 93%
11:00 +12°C° 0.4 mm 9 mps 736 mmHg 92%
12:00 +13°C° 0.4 mm 10 mps 736 mmHg 91%
13:00 +12°C° 0.2 mm 9 mps 736 mmHg 88%
14:00 +12°C° 0.2 mm 9 mps 737 mmHg 85%
15:00 +12°C° 0.2 mm 9 mps 737 mmHg 82%
16:00 +11°C° 0 mm 9 mps 738 mmHg 81%
17:00 +11°C° 0 mm 10 mps 738 mmHg 80%
18:00 +9°C° 0 mm 10 mps 739 mmHg 79%
19:00 +9°C° 0.1 mm 10 mps 740 mmHg 78%
20:00 +8°C° 0.1 mm 9 mps 741 mmHg 77%
21:00 +8°C° 0.1 mm 9 mps 741 mmHg 77%
22:00 +7°C° 0.4 mm 9 mps 742 mmHg 80%
23:00 +7°C° 0.4 mm 8 mps 742 mmHg 84%
Mostrar más

Necesitamos Su Consentimiento

Meteoprog y nuestros Proveedores de Servicios pueden almacenar y acceder a sus datos personales como cookies, identificadores de dispositivo u otras tecnologías similares de su dispositivo y procesar dichos datos para personalizar contenido y anuncios, además de ofrecer funciones de redes sociales y analizar el tráfico.

  • Almacenar y/o acceder a información en su dispositivo

    Se puede almacenar o acceder a cookies, identificadores de dispositivo u otra información de su dispositivo para los fines anteriormente indicados.

  • Anuncios y contenido personalizados, medición de anuncios y contenido, percepciones del público, y desarrollo de productos

    Los anuncios y el contenido pueden personalizarse en base a su perfil. Se pueden añadir más datos para personalizar mejor los anuncios y contenidos. Se puede medir el rendimiento de los anuncios y contenidos. Se puede obtener la percepción sobre el público que ha visto los anuncios y contenidos. Dichos datos pueden usarse para desarrollar o mejorar la experiencia del usuario, sistemas y software.

Al hacer clic en ‘Estoy De Acuerdo’ usted permitirá el uso de las cookies, identificadores de dispositivo, balizas web u otras tecnologías similares indicadas. Su configuración puede cambiarse desde el navegador de su dispositivo.

Para ciertos fines, los intereses legítimos pueden ser considerados por encima del consentimiento. Puede leer más sobre ello en nuestra Política de Privacidad y Cookies.